Time,TemperatureF,DewpointF,PressureIn,WindDirection,WindDirectionDegrees,WindSpeedMPH,WindSpeedGustMPH,Humidity,HourlyPrecipIn,Conditions,Clouds,dailyrainin,SoftwareType,DateUTC
2013-05-24 00:01:00,70.7,55.7,30.03,SSE,158,0.0,0.0,59,0.00,CLR,,0.00,WeatherDisplay:10.37,2013-05-24 05:01:00,
2013-05-24 00:06:00,70.5,55.5,30.03,SSE,158,0.0,0.0,59,0.00,CLR,,0.00,WeatherDisplay:10.37,2013-05-24 05:06:00,
2013-05-24 00:11:00,70.5,56.4,30.03,SSE,158,0.0,0.0,61,0.00,CLR,,0.00,WeatherDisplay:10.37,2013-05-24 05:11:00,
2013-05-24 00:16:00,70.5,56.4,30.03,SSE,158,0.0,0.0,61,0.00,CLR,,0.00,WeatherDisplay:10.37,2013-05-24 05:16:00,
2013-05-24 00:21:00,70.3,56.7,30.03,SSE,158,0.0,0.0,62,0.00,CLR,,0.00,WeatherDisplay:10.37,2013-05-24 05:21:00,
2013-05-24 00:26:00,70.3,56.7,30.03,SSE,158,0.0,0.0,62,0.00,CLR,,0.00,WeatherDisplay:10.37,2013-05-24 05:26:00,
2013-05-24 00:31:00,70.3,56.7,30.03,SSE,158,0.0,0.0,62,0.00,CLR,,0.00,WeatherDisplay:10.37,2013-05-24 05:31:00,
2013-05-24 00:36:00,70.3,56.7,30.03,SSE,158,0.0,0.0,62,0.00,CLR,,0.00,WeatherDisplay:10.37,2013-05-24 05:36:00,
2013-05-24 00:41:00,70.2,56.5,30.03,SSE,158,0.0,0.0,62,0.00,CLR,,0.00,WeatherDisplay:10.37,2013-05-24 05:41:00,
2013-05-24 00:46:00,70.2,56.5,30.03,SSE,158,0.0,0.0,62,0.00,CLR,,0.00,WeatherDisplay:10.37,2013-05-24 05:46:00,
2013-05-24 00:51:00,70.2,56.5,30.06,SSE,158,0.0,0.0,62,0.00,CLR,,0.00,WeatherDisplay:10.37,2013-05-24 05:51:00,
2013-05-24 00:56:00,70.0,56.8,30.06,SSE,158,0.0,0.0,63,0.00,CLR,,0.00,WeatherDisplay:10.37,2013-05-24 05:56:00,
2013-05-24 01:01:00,70.0,56.8,30.06,SSE,158,0.0,0.0,63,0.00,CLR,,0.00,WeatherDisplay:10.37,2013-05-24 06:01:00,
2013-05-24 01:06:00,69.8,56.6,30.03,SSE,158,0.0,0.0,63,0.00,CLR,,0.00,WeatherDisplay:10.37,2013-05-24 06:06:00,
2013-05-24 01:11:00,69.8,56.6,30.03,SSE,158,0.0,0.0,63,0.00,CLR,,0.00,WeatherDisplay:10.37,2013-05-24 06:11:00,
2013-05-24 01:16:00,69.8,57.1,30.03,SSE,158,0.0,0.0,64,0.00,CLR,,0.00,WeatherDisplay:10.37,2013-05-24 06:16:00,
2013-05-24 01:21:00,69.6,56.5,30.06,SSE,158,0.0,0.0,63,0.00,CLR,,0.00,WeatherDisplay:10.37,2013-05-24 06:21:00,
2013-05-24 01:26:00,69.8,57.1,30.06,SSE,158,0.0,0.0,64,0.00,CLR,,0.00,WeatherDisplay:10.37,2013-05-24 06:26:00,
2013-05-24 01:31:00,69.6,56.9,30.06,SSE,158,0.0,0.0,64,0.00,CLR,,0.00,WeatherDisplay:10.37,2013-05-24 06:31:00,
2013-05-24 01:36:00,69.6,57.3,30.06,SSE,158,0.0,0.0,65,0.00,CLR,,0.00,WeatherDisplay:10.37,2013-05-24 06:36:00,
2013-05-24 01:41:00,69.6,57.3,30.06,SSE,158,0.0,0.0,65,0.00,CLR,,0.00,WeatherDisplay:10.37,2013-05-24 06:41:00,
2013-05-24 01:46:00,69.4,57.2,30.06,SSE,158,0.0,0.0,65,0.00,CLR,,0.00,WeatherDisplay:10.37,2013-05-24 06:46:00,
2013-05-24 01:51:00,69.4,57.2,30.06,SSE,158,0.0,0.0,65,0.00,CLR,,0.00,WeatherDisplay:10.37,2013-05-24 06:51:00,
2013-05-24 01:56:00,69.4,56.7,30.06,SSE,158,0.0,0.0,64,0.00,CLR,,0.00,WeatherDisplay:10.37,2013-05-24 06:56:00,
2013-05-24 02:01:00,69.6,56.9,30.06,SSE,158,0.0,0.0,64,0.00,CLR,,0.00,WeatherDisplay:10.37,2013-05-24 07:01:00,
2013-05-24 02:06:00,69.6,57.3,30.06,SSE,158,0.0,0.0,65,0.00,CLR,,0.00,WeatherDisplay:10.37,2013-05-24 07:06:00,
2013-05-24 02:11:00,69.4,57.6,30.06,SSE,158,0.0,0.0,66,0.00,CLR,,0.00,WeatherDisplay:10.37,2013-05-24 07:11:00,
2013-05-24 02:16:00,69.4,57.6,30.06,SSE,158,0.0,0.0,66,0.00,CLR,,0.00,WeatherDisplay:10.37,2013-05-24 07:16:00,
2013-05-24 02:21:00,69.4,58.0,30.03,SSE,158,0.0,0.0,67,0.00,CLR,,0.00,WeatherDisplay:10.37,2013-05-24 07:21:00,
2013-05-24 02:26:00,69.3,57.4,30.03,SSE,158,0.0,0.0,66,0.00,CLR,,0.00,WeatherDisplay:10.37,2013-05-24 07:26:00,
2013-05-24 02:31:00,69.3,57.8,30.03,SSE,158,0.0,0.0,67,0.00,CLR,,0.00,WeatherDisplay:10.37,2013-05-24 07:31:00,
2013-05-24 02:36:00,69.1,57.7,30.03,SSE,158,0.0,0.0,67,0.00,CLR,,0.00,WeatherDisplay:10.37,2013-05-24 07:36:00,
2013-05-24 02:41:00,69.3,58.2,30.03,SSE,158,0.0,0.0,68,0.00,CLR,,0.00,WeatherDisplay:10.37,2013-05-24 07:41:00,
2013-05-24 02:46:00,69.3,58.2,30.03,SSE,158,0.0,0.0,68,0.00,CLR,,0.00,WeatherDisplay:10.37,2013-05-24 07:46:00,
2013-05-24 02:51:00,69.3,59.1,30.06,SSE,158,0.0,0.0,70,0.00,CLR,,0.00,WeatherDisplay:10.37,2013-05-24 07:51:00,
2013-05-24 02:56:00,69.3,59.1,30.06,SSE,158,0.0,0.0,70,0.00,CLR,,0.00,WeatherDisplay:10.37,2013-05-24 07:56:00,
2013-05-24 03:01:00,69.1,58.9,30.06,SSE,158,0.0,0.0,70,0.00,CLR,,0.00,WeatherDisplay:10.37,2013-05-24 08:01:00,
2013-05-24 03:06:00,69.1,58.9,30.06,SSE,158,0.0,0.0,70,0.00,CLR,,0.00,WeatherDisplay:10.37,2013-05-24 08:06:00,
2013-05-24 03:11:00,69.1,58.9,30.06,SSE,158,0.0,0.0,70,0.00,CLR,,0.00,WeatherDisplay:10.37,2013-05-24 08:11:00,
2013-05-24 03:16:00,68.9,59.1,30.06,SSE,158,0.0,0.0,71,0.00,CLR,,0.00,WeatherDisplay:10.37,2013-05-24 08:16:00,
2013-05-24 03:21:00,68.9,59.1,30.06,SSE,158,0.0,0.0,71,0.00,CLR,,0.00,WeatherDisplay:10.37,2013-05-24 08:21:00,
2013-05-24 03:26:00,68.7,58.9,30.06,SSE,158,0.0,0.0,71,0.00,CLR,,0.00,WeatherDisplay:10.37,2013-05-24 08:26:00,
2013-05-24 03:31:00,68.7,59.3,30.06,SSE,158,0.0,0.0,72,0.00,CLR,,0.00,WeatherDisplay:10.37,2013-05-24 08:31:00,
2013-05-24 03:36:00,68.5,59.2,30.06,SSE,158,0.0,0.0,72,0.00,CLR,,0.00,WeatherDisplay:10.37,2013-05-24 08:36:00,
2013-05-24 03:41:00,68.5,59.2,30.06,SSE,158,0.0,0.0,72,0.00,CLR,,0.00,WeatherDisplay:10.37,2013-05-24 08:41:00,
2013-05-24 03:46:00,68.7,59.3,30.06,SSE,158,0.0,0.0,72,0.00,CLR,,0.00,WeatherDisplay:10.37,2013-05-24 08:46:00,
2013-05-24 03:51:00,68.5,59.2,30.06,SSE,158,0.0,0.0,72,0.00,CLR,,0.00,WeatherDisplay:10.37,2013-05-24 08:51:00,
2013-05-24 03:56:00,68.7,59.3,30.06,SSE,158,0.0,0.0,72,0.00,CLR,,0.00,WeatherDisplay:10.37,2013-05-24 08:56:00,
2013-05-24 04:01:00,68.7,59.3,30.06,SSE,158,0.0,0.0,72,0.00,CLR,,0.00,WeatherDisplay:10.37,2013-05-24 09:01:00,
2013-05-24 04:06:00,68.5,59.5,30.06,SSE,158,0.0,0.0,73,0.00,CLR,,0.00,WeatherDisplay:10.37,2013-05-24 09:06:00,
2013-05-24 04:11:00,68.5,59.9,30.06,SSE,158,0.0,0.0,74,0.00,CLR,,0.00,WeatherDisplay:10.37,2013-05-24 09:11:00,
2013-05-24 04:16:00,68.2,59.6,30.06,SSE,158,0.0,0.0,74,0.00,CLR,,0.00,WeatherDisplay:10.37,2013-05-24 09:16:00,
2013-05-24 04:21:00,68.2,59.2,30.06,SSE,158,0.0,0.0,73,0.00,CLR,,0.00,WeatherDisplay:10.37,2013-05-24 09:21:00,
2013-05-24 04:26:00,68.2,59.6,30.06,SSE,158,0.0,0.0,74,0.00,CLR,,0.00,WeatherDisplay:10.37,2013-05-24 09:26:00,
2013-05-24 04:31:00,68.0,59.4,30.06,SSE,158,0.0,0.0,74,0.00,CLR,,0.00,WeatherDisplay:10.37,2013-05-24 09:31:00,
2013-05-24 04:36:00,68.0,59.4,30.06,SSE,158,0.0,0.0,74,0.00,CLR,,0.00,WeatherDisplay:10.37,2013-05-24 09:36:00,
2013-05-24 04:41:00,67.8,59.2,30.06,SSE,158,0.0,0.0,74,0.00,CLR,,0.00,WeatherDisplay:10.37,2013-05-24 09:41:00,
2013-05-24 04:46:00,67.8,59.6,30.09,SSE,158,0.0,0.0,75,0.00,CLR,,0.00,WeatherDisplay:10.37,2013-05-24 09:46:00,
2013-05-24 04:51:00,67.8,59.6,30.09,SSE,158,0.0,0.0,75,0.00,CLR,,0.00,WeatherDisplay:10.37,2013-05-24 09:51:00,
2013-05-24 04:56:00,67.6,59.4,30.09,SSE,158,0.0,0.0,75,0.00,CLR,,0.00,WeatherDisplay:10.37,2013-05-24 09:56:00,
2013-05-24 05:01:00,67.8,60.0,30.09,SSE,158,0.0,0.0,76,0.00,CLR,,0.00,WeatherDisplay:10.37,2013-05-24 10:01:00,
2013-05-24 05:06:00,67.8,60.0,30.09,SSE,158,0.0,0.0,76,0.00,CLR,,0.00,WeatherDisplay:10.37,2013-05-24 10:06:00,
2013-05-24 05:11:00,67.8,60.0,30.09,SSE,158,0.0,0.0,76,0.00,CLR,,0.00,WeatherDisplay:10.37,2013-05-24 10:11:00,
2013-05-24 05:16:00,68.0,60.5,30.09,SSE,158,0.0,0.0,77,0.00,CLR,,0.00,WeatherDisplay:10.37,2013-05-24 10:16:00,
2013-05-24 05:21:00,68.2,60.7,30.09,SSE,158,0.0,0.0,77,0.00,CLR,,0.00,WeatherDisplay:10.37,2013-05-24 10:21:00,
2013-05-24 05:26:00,68.2,61.4,30.09,SSE,158,0.0,0.0,79,0.00,CLR,,0.00,WeatherDisplay:10.37,2013-05-24 10:26:00,
2013-05-24 05:31:00,68.4,61.2,30.09,SSE,158,0.0,0.0,78,0.00,CLR,,0.00,WeatherDisplay:10.37,2013-05-24 10:31:00,
2013-05-24 05:36:00,68.5,61.8,30.09,SSE,158,0.0,0.0,79,0.00,CLR,,0.00,WeatherDisplay:10.37,2013-05-24 10:36:00,
2013-05-24 05:42:00,68.5,61.8,30.09,SSE,158,0.0,0.0,79,0.00,CLR,,0.00,WeatherDisplay:10.37,2013-05-24 10:42:00,
2013-05-24 05:47:00,68.7,61.6,30.09,SSE,158,0.0,0.0,78,0.00,CLR,,0.00,WeatherDisplay:10.37,2013-05-24 10:47:00,
2013-05-24 05:52:00,68.7,61.6,30.09,SSE,158,0.0,0.0,78,0.00,CLR,,0.00,WeatherDisplay:10.37,2013-05-24 10:52:00,
2013-05-24 05:57:00,68.7,61.9,30.09,SSE,158,0.0,0.0,79,0.00,CLR,,0.00,WeatherDisplay:10.37,2013-05-24 10:57:00,
2013-05-24 06:02:00,68.9,62.1,30.09,SSE,158,0.0,0.0,79,0.00,CLR,,0.00,WeatherDisplay:10.37,2013-05-24 11:02:00,
2013-05-24 06:07:00,69.1,62.3,30.09,SSE,158,0.0,0.0,79,0.00,CLR,,0.00,WeatherDisplay:10.37,2013-05-24 11:07:00,
2013-05-24 06:12:00,69.1,62.3,30.09,SSE,158,0.0,0.0,79,0.00,CLR,,0.00,WeatherDisplay:10.37,2013-05-24 11:12:00,
2013-05-24 06:17:00,69.1,62.3,30.09,SSE,158,0.0,0.0,79,0.00,CLR,,0.00,WeatherDisplay:10.37,2013-05-24 11:17:00,
2013-05-24 06:22:00,69.3,62.5,30.09,SSE,158,0.0,0.0,79,0.00,CLR,,0.00,WeatherDisplay:10.37,2013-05-24 11:22:00,
2013-05-24 06:27:00,69.3,62.5,30.09,SSE,158,0.0,0.0,79,0.00,CLR,,0.00,WeatherDisplay:10.37,2013-05-24 11:27:00,
2013-05-24 06:32:00,69.3,62.5,30.09,SSE,158,0.0,0.0,79,0.00,CLR,,0.00,WeatherDisplay:10.37,2013-05-24 11:32:00,
2013-05-24 06:37:00,69.4,63.0,30.09,SSE,158,0.0,0.0,80,0.00,CLR,,0.00,WeatherDisplay:10.37,2013-05-24 11:37:00,
2013-05-24 06:42:00,69.6,63.2,30.09,SSE,158,0.0,0.0,80,0.00,CLR,,0.00,WeatherDisplay:10.37,2013-05-24 11:42:00,
2013-05-24 06:47:00,69.8,63.7,30.12,SSE,158,0.0,0.0,81,0.00,CLR,,0.00,WeatherDisplay:10.37,2013-05-24 11:47:00,
2013-05-24 06:52:00,70.0,64.2,30.12,SSE,158,0.0,0.0,82,0.00,CLR,,0.00,WeatherDisplay:10.37,2013-05-24 11:52:00,
2013-05-24 06:57:00,70.0,63.9,30.12,SSE,158,0.0,0.0,81,0.00,CLR,,0.00,WeatherDisplay:10.37,2013-05-24 11:57:00,
2013-05-24 07:02:00,70.2,64.1,30.12,SSE,158,0.0,0.0,81,0.00,CLR,,0.00,WeatherDisplay:10.37,2013-05-24 12:02:00,
2013-05-24 07:07:00,70.3,64.2,30.12,SSE,158,0.0,0.0,81,0.00,CLR,,0.00,WeatherDisplay:10.37,2013-05-24 12:07:00,
2013-05-24 07:12:00,70.7,64.9,30.12,SSE,158,0.0,0.0,82,0.00,CLR,,0.00,WeatherDisplay:10.37,2013-05-24 12:12:00,